Home   Weather   Alwar   Past weeks
Flag for India

Past Weather in Alwar, Rajasthan, India — Yesterday and Last 2 Weeks

Now
90 °F

Scattered clouds.


Feels Like: 98 °F
Forecast: 92 / 77 °F
Wind: 8 mph from Northwest

Location: Jaipur / Sanganer

Current Time: Aug 22, 2019 at 12:39:19 pm

Latest Report: Aug 22, 2019 at 12:00 pm


Visibility: 2 mi

Pressure: 29.71 "Hg

Humidity: 59%

Dew Point: 73 °F

Location of AlwarLocation

Past Weather in Alwar — Graph

°F

Alwar Temperature Yesterday

Maximum temperature yesterday: 93 °F (at 12:30 pm)
Minimum temperature yesterday: 81 °F (at 4:00 am)
Average temperature yesterday: 86 °F

High & Low Weather Summary for the Past Weeks

 TemperatureHumidityPressure
High93 °F (Aug 8, 3:00 pm)100% (Aug 7, 1:30 pm)29.80 "Hg (Aug 7, 1:30 pm)
Low75 °F (Aug 15, 7:30 am)49% (Aug 20, 6:30 pm)29.36 "Hg (Aug 8, 4:00 pm)
Average82 °F84%29.60 "Hg
* Reported Aug 7 11:30 am — Aug 22 11:30 am, Alwar. Weather by CustomWeather, © 2019

Note: Actual official high and low records may vary slightly from our data, if they occured in-between our weather recording intervals... More about our weather records

Advertising

Alwar Weather History for the Previous 24 Hours

Scroll right to see more
 ConditionsComfort  
Time TempWeatherWind HumidityBarometerVisibility
11:30 am
Thu, Aug 22
90 °FScattered clouds.8 mph59%29.74 "Hg2 mi
11:00 am90 °FScattered clouds.10 mph59%29.74 "Hg2 mi
10:30 am88 °FScattered clouds.9 mph62%29.74 "Hg2 mi
10:00 am86 °FScattered clouds.10 mph66%29.74 "Hg2 mi
9:30 am84 °FScattered clouds.13 mph70%29.74 "Hg1 mi
9:00 am84 °FScattered clouds.12 mph70%29.74 "Hg1 mi
8:30 am84 °FScattered clouds.9 mph70%29.74 "Hg1 mi
8:00 am82 °FScattered clouds.9 mph74%29.71 "Hg1 mi
7:30 am82 °FScattered clouds.7 mph74%29.71 "Hg1 mi
7:00 am81 °FScattered clouds.6 mph79%29.71 "Hg1 mi
6:30 am81 °FPassing clouds.6 mph79%29.68 "Hg1 mi
6:00 am81 °FPassing clouds.8 mph79%29.68 "Hg1 mi
5:30 am81 °FPassing clouds.8 mph79%29.68 "Hg1 mi
5:00 am81 °FPassing clouds.5 mph79%29.68 "Hg1 mi
4:30 am81 °FPassing clouds.7 mph79%29.68 "Hg1 mi
3:30 am82 °FPassing clouds.3 mph70%29.68 "Hg1 mi
3:00 am82 °FPassing clouds.2 mph70%29.68 "Hg1 mi
2:30 am84 °FPassing clouds.6 mph66%29.68 "Hg1 mi
2:00 am82 °FPassing clouds.5 mph66%29.68 "Hg1 mi
1:30 am82 °FPassing clouds.5 mph62%29.68 "Hg1 mi
1:00 am82 °FPassing clouds.3 mph58%29.68 "Hg1 mi
12:30 am82 °FPassing clouds.7 mph58%29.68 "Hg1 mi
12:00 am82 °FPassing clouds.2 mph66%29.71 "Hg1 mi
11:30 pm
Wed, Aug 21
82 °FPartly cloudy.5 mph62%29.71 "Hg1 mi
11:00 pm82 °FPassing clouds.6 mph62%29.71 "Hg1 mi
10:30 pm84 °FPassing clouds.6 mph62%29.71 "Hg1 mi
10:00 pm86 °FPassing clouds.9 mph66%29.71 "Hg1 mi
9:30 pm86 °FHaze.6 mph75%29.68 "Hg2 mi
9:00 pm86 °FHaze.7 mph75%29.68 "Hg2 mi
8:30 pm88 °FHaze.8 mph70%29.68 "Hg2 mi
8:00 pm88 °FHaze.6 mph66%29.65 "Hg2 mi
7:30 pm88 °FPassing clouds.7 mph66%29.65 "Hg2 mi
7:00 pm90 °FScattered clouds.8 mph63%29.65 "Hg2 mi
6:30 pm90 °FScattered clouds.8 mph63%29.65 "Hg2 mi
6:00 pm91 °FScattered clouds.10 mph59%29.62 "Hg3 mi
5:30 pm93 °FScattered clouds.10 mph56%29.62 "Hg3 mi
5:00 pm93 °FScattered clouds.9 mph56%29.62 "Hg3 mi
4:30 pm93 °FScattered clouds.10 mph56%29.65 "Hg3 mi
4:00 pm93 °FScattered clouds.10 mph56%29.65 "Hg3 mi
3:30 pm93 °FScattered clouds.10 mph56%29.65 "Hg3 mi
3:00 pm93 °FScattered clouds.9 mph56%29.68 "Hg3 mi
2:30 pm91 °FScattered clouds.9 mph59%29.68 "Hg3 mi
1:30 pm93 °FScattered clouds.9 mph56%29.71 "Hg3 mi
1:00 pm91 °FScattered clouds.9 mph59%29.71 "Hg3 mi
12:30 pm93 °FScattered clouds.12 mph56%29.71 "Hg2 mi
12:00 pm91 °FScattered clouds.12 mph59%29.74 "Hg2 mi
Weather by CustomWeather, © 2019

See weather overview